FW0063 Weather Reports


Display with metric or nautical units.
time (UTC)temp
F
wind
direction
speed
MPH
gust
MPH
rain 1hr
in
rain 24hr
in
rain mn
in
humidity
%
barometer
mb
20260507231834 73 294 10.0 14.0 0.00 0.00 0.00 61 1015.9
20260507231351 73 225 7.0 14.0 0.00 0.00 0.00 62 1015.8
20260507230829 73 196 7.0 12.0 0.00 0.00 0.00 61 1015.8
20260507230327 73 292 8.0 14.0 0.00 0.00 0.00 61 1015.7
20260507225825 73 203 8.0 13.0 0.00 0.00 0.00 61 1015.7
20260507225343 73 281 10.0 13.0 0.00 0.00 0.00 60 1015.9
20260507224836 73 259 10.0 14.0 0.00 0.00 0.00 60 1015.9
20260507224334 73 293 10.0 14.0 0.00 0.00 0.00 59 1015.9
20260507223835 74 289 10.0 16.0 0.00 0.00 0.00 59 1016.0
20260507223335 74 230 11.0 16.0 0.00 0.00 0.00 59 1015.9
20260507222834 74 304 6.0 16.0 0.00 0.00 0.00 60 1016.0
20260507222333 74 309 10.0 16.0 0.00 0.00 0.00 58 1016.0
20260507221827 74 240 10.0 15.0 0.00 0.00 0.00 58 1015.9
20260507221326 74 229 8.0 15.0 0.00 0.00 0.00 59 1015.9
20260507220826 74 267 7.0 15.0 0.00 0.00 0.00 59 1016.0
20260507220345 74 288 8.0 14.0 0.00 0.00 0.00 58 1016.1
20260507215838 75 273 9.0 14.0 0.00 0.00 0.00 57 1016.2
20260507215337 75 200 6.0 15.0 0.00 0.00 0.00 58 1016.3
20260507214832 75 304 9.0 15.0 0.00 0.00 0.00 58 1016.4
20260507214329 74 186 8.0 15.0 0.00 0.00 0.00 58 1016.3
20260507213827 74 313 7.0 15.0 0.00 0.00 0.00 59 1016.4
20260507213342 74 240 12.0 15.0 0.00 0.00 0.00 58 1016.4
20260507212842 74 281 9.0 15.0 0.00 0.00 0.00 59 1016.5
20260507212340 74 292 8.0 15.0 0.00 0.00 0.00 59 1016.6
20260507211832 74 294 6.0 15.0 0.00 0.00 0.00 59 1016.6
20260507211353 73 293 8.0 16.0 0.00 0.00 0.00 60 1016.7
20260507210829 74 319 12.0 16.0 0.00 0.00 0.00 59 1016.8
20260507210328 73 248 10.0 16.0 0.00 0.00 0.00 59 1016.7
20260507205825 73 258 12.0 16.0 0.00 0.00 0.00 60 1016.7
20260507205326 73 296 11.0 15.0 0.00 0.00 0.00 59 1016.8
20260507204840 73 223 7.0 15.0 0.00 0.00 0.00 61 1016.8
20260507204337 73 286 12.0 15.0 0.00 0.00 0.00 60 1017.0
20260507203837 73 277 11.0 14.0 0.00 0.00 0.00 60 1017.0
20260507203335 73 295 11.0 17.0 0.00 0.00 0.00 61 1017.1
20260507202835 73 255 12.0 17.0 0.00 0.00 0.00 61 1016.8
20260507202332 73 222 7.0 14.0 0.00 0.00 0.00 62 1016.8
20260507201826 73 298 11.0 17.0 0.00 0.00 0.00 62 1016.8
20260507201404 73 273 10.0 17.0 0.00 0.00 0.00 62 1016.9
20260507200823 74 314 9.0 16.0 0.00 0.00 0.00 61 1017.0
20260507200344 74 225 11.0 12.0 0.00 0.00 0.00 62 1017.0
20260507195826 74 263 8.0 13.0 0.00 0.00 0.00 63 1017.0
20260507195343 73 274 5.0 13.0 0.00 0.00 0.00 64 1017.0
20260507194841 72 279 10.0 13.0 0.00 0.00 0.00 64 1017.1
20260507194338 73 311 9.0 13.0 0.00 0.00 0.00 63 1017.1
20260507193838 74 279 9.0 12.0 0.00 0.00 0.00 62 1017.2
20260507193337 73 221 7.0 14.0 0.00 0.00 0.00 64 1017.2
20260507192831 72 298 6.0 16.0 0.00 0.00 0.00 64 1017.3
20260507192331 73 326 9.0 16.0 0.00 0.00 0.00 63 1017.5
20260507191830 73 298 10.0 14.0 0.00 0.00 0.00 62 1017.5
20260507191326 74 276 9.0 14.0 0.00 0.00 0.00 61 1017.4
20260507190827 74 202 3.0 12.0 0.00 0.00 0.00 59 1017.5
20260507190347 74 303 4.0 8.0 0.00 0.00 0.00 58 1017.6
20260507185859 74 297 2.0 10.0 0.00 0.00 0.00 59 1017.7
20260507185357 74 223 6.0 11.0 0.00 0.00 0.00 59 1017.8
20260507184835 74 252 4.0 11.0 0.00 0.00 0.00 59 1017.9
20260507184336 73 232 3.0 8.0 0.00 0.00 0.00 60 1017.9
20260507183857 73 173 3.0 8.0 0.00 0.00 0.00 61 1017.9
20260507183331 72 248 3.0 12.0 0.00 0.00 0.00 62 1018.0
20260507182828 72 318 7.0 12.0 0.00 0.00 0.00 61 1018.1
20260507182348 72 182 6.0 10.0 0.00 0.00 0.00 61 1018.1
20260507181845 72 215 5.0 8.0 0.00 0.00 0.00 61 1018.1
20260507181343 72 205 5.0 10.0 0.00 0.00 0.00 61 1018.2
20260507180824 72 207 6.0 10.0 0.00 0.00 0.00 61 1018.2
20260507180339 72 248 4.0 8.0 0.00 0.00 0.00 62 1018.2
20260507175857 71 128 2.0 8.0 0.00 0.00 0.00 63 1018.2
20260507175333 71 271 5.0 8.0 0.00 0.00 0.00 64 1018.2
20260507174831 71 255 2.0 8.0 0.00 0.00 0.00 64 1018.3
20260507174330 70 317 2.0 5.0 0.00 0.00 0.00 66 1018.2
20260507173825 69 173 1.0 9.0 0.00 0.00 0.00 67 1018.3
20260507173324 70 295 5.0 9.0 0.00 0.00 0.00 65 1018.4
20260507172824 71 244 5.0 8.0 0.00 0.00 0.00 64 1018.3
20260507172344 70 165 0.0 5.0 0.00 0.00 0.00 67 1018.3
20260507171902 69 160 1.0 7.0 0.00 0.00 0.00 68 1018.3
20260507171357 69 294 2.0 7.0 0.00 0.00 0.00 68 1018.4
20260507170836 69 285 1.0 7.0 0.00 0.00 0.00 68 1018.4
20260507170335 69 288 3.0 6.0 0.00 0.00 0.00 67 1018.4
20260507165831 69 267 0.0 3.0 0.00 0.00 0.00 68 1018.4
20260507165351 68 296 1.0 6.0 0.00 0.00 0.00 69 1018.4
20260507164827 68 227 2.0 6.0 0.00 0.00 0.00 69 1018.4
20260507164341 68 261 3.0 6.0 0.00 0.00 0.00 69 1018.4
20260507163838 68 187 0.0 4.0 0.00 0.00 0.00 69 1018.5
20260507163337 67 185 2.0 4.0 0.00 0.00 0.00 70 1018.5
20260507162836 67 126 1.0 7.0 0.00 0.00 0.00 71 1018.5
20260507162337 67 176 4.0 7.0 0.00 0.00 0.00 70 1018.5
20260507161835 66 193 2.0 5.0 0.00 0.00 0.00 71 1018.5
20260507161331 66 189 1.0 6.0 0.00 0.00 0.00 71 1018.5
20260507160831 66 244 2.0 6.0 0.00 0.00 0.00 72 1018.5
20260507160408 66 164 2.0 5.0 0.00 0.00 0.00 73 1018.6
20260507155829 65 170 1.0 4.0 0.00 0.00 0.00 73 1018.6
20260507155328 65 197 2.0 4.0 0.00 0.00 0.00 74 1018.7
20260507154902 65 213 0.0 6.0 0.00 0.00 0.00 76 1018.6
20260507154338 64 221 2.0 6.0 0.00 0.00 0.00 75 1018.7
20260507153837 64 198 0.0 2.0 0.00 0.00 0.00 76 1018.8
20260507153335 64 199 0.0 3.0 0.00 0.00 0.00 76 1018.8
20260507152836 63 198 1.0 4.0 0.00 0.00 0.00 76 1018.9
20260507152334 63 215 1.0 4.0 0.00 0.00 0.00 76 1018.9
20260507151829 63 213 0.0 4.0 0.00 0.00 0.00 76 1018.7
20260507151328 63 216 1.0 4.0 0.00 0.00 0.00 76 1018.7
20260507150827 63 171 0.0 4.0 0.00 0.00 0.00 77 1018.7
20260507150345 62 146 0.0 1.0 0.00 0.00 0.00 77 1018.8
20260507145841 62 143 0.0 2.0 0.00 0.00 0.00 77 1018.8
20260507145340 62 143 0.0 2.0 0.00 0.00 0.00 78 1018.7
20260507144854 61 152 0.0 2.0 0.00 0.00 0.00 79 1018.8
20260507144335 61 151 0.0 2.0 0.00 0.00 0.00 79 1018.8
20260507143831 61 150 0.0 2.0 0.00 0.00 0.00 80 1018.8
20260507143329 61 150 0.0 2.0 0.00 0.00 0.00 80 1018.7
20260507142828 60 63 0.0 1.0 0.00 0.00 0.00 81 1018.7
20260507142341 60 63 0.0 1.0 0.00 0.00 0.00 81 1018.6
20260507141840 60 61 0.0 0.0 0.00 0.00 0.00 82 1018.3
20260507141341 59 61 0.0 0.0 0.00 0.00 0.00 83 1018.3
20260507140842 59 61 0.0 1.0 0.00 0.00 0.00 83 1018.3
20260507140340 58 61 0.0 1.0 0.00 0.00 0.00 83 1018.3
20260507135837 58 61 0.0 1.0 0.00 0.00 0.00 83 1018.2
20260507135331 58 61 0.0 1.0 0.00 0.00 0.00 83 1018.2
20260507134828 57 61 0.0 1.0 0.00 0.00 0.00 84 1018.2
20260507134327 57 360 0.0 0.0 0.00 0.00 0.00 84 1018.1
20260507133827 57 360 0.0 0.0 0.00 0.00 0.00 83 1018.0
20260507133325 56 360 0.0 0.0 0.00 0.00 0.00 83 1017.9
20260507132839 56 360 0.0 0.0 0.00 0.00 0.00 83 1017.9
20260507132340 56 61 0.0 0.0 0.00 0.00 0.00 83 1018.0
20260507131841 56 61 0.0 1.0 0.00 0.00 0.00 83 1017.9
20260507131339 56 51 0.0 1.0 0.00 0.00 0.00 83 1017.8
20260507130837 56 40 0.0 1.0 0.00 0.00 0.00 83 1017.7
20260507130337 56 40 0.0 0.0 0.00 0.00 0.00 83 1017.6
20260507125827 56 40 0.0 0.0 0.00 0.00 0.00 83 1017.7
20260507125345 56 42 0.0 0.0 0.00 0.00 0.00 83 1017.7
20260507124832 56 51 0.0 0.0 0.00 0.00 0.00 83 1017.6
20260507124352 56 51 0.0 0.0 0.00 0.00 0.00 83 1017.6
20260507123826 56 51 0.0 0.0 0.00 0.00 0.00 83 1017.6
20260507123325 56 51 0.0 0.0 0.00 0.00 0.00 83 1017.6
20260507122825 56 51 0.0 0.0 0.00 0.00 0.00 83 1017.6
20260507122326 56 51 0.0 0.0 0.00 0.00 0.00 83 1017.6
20260507121844 56 47 0.0 0.0 0.00 0.00 0.00 83 1017.6
20260507121342 56 45 0.0 0.0 0.00 0.00 0.00 83 1017.7
20260507120858 56 45 0.0 3.0 0.00 0.00 0.00 83 1017.7
20260507120337 56 44 1.0 3.0 0.00 0.00 0.00 83 1017.7
20260507115851 56 38 1.0 3.0 0.00 0.00 0.00 83 1017.9
20260507115329 56 42 2.0 3.0 0.00 0.00 0.00 83 1017.8
20260507114829 56 31 2.0 3.0 0.00 0.00 0.00 82 1017.9
20260507114345 56 24 1.0 3.0 0.00 0.00 0.00 82 1017.9
20260507113841 56 22 1.0 3.0 0.00 0.00 0.00 82 1017.9
20260507113341 56 21 2.0 3.0 0.00 0.00 0.00 82 1017.9
20260507112900 56 35 0.0 3.0 0.00 0.00 0.00 82 1017.9
20260507112336 56 35 1.0 3.0 0.00 0.00 0.00 82 1017.9
20260507111835 57 34 1.0 3.0 0.00 0.00 0.00 82 1018.0
20260507111330 57 49 1.0 2.0 0.00 0.00 0.00 82 1018.0
20260507110849 57 51 0.0 2.0 0.00 0.00 0.00 82 1018.1
20260507110406 57 52 0.0 1.0 0.00 0.00 0.00 82 1018.0
20260507105842 57 52 0.0 1.0 0.00 0.00 0.00 82 1018.1
20260507105338 57 53 0.0 1.0 0.00 0.00 0.00 82 1018.0
20260507104836 57 52 0.0 0.0 0.00 0.00 0.00 82 1018.1
20260507104335 57 53 0.0 1.0 0.00 0.00 0.00 82 1018.1
20260507103834 57 52 0.0 2.0 0.00 0.00 0.00 82 1018.2
20260507103355 57 52 0.0 2.0 0.00 0.00 0.00 82 1018.2
20260507102834 57 53 0.0 2.0 0.00 0.00 0.00 82 1018.2
20260507102330 57 53 0.0 2.0 0.00 0.00 0.00 81 1018.3
20260507101829 57 53 1.0 3.0 0.00 0.00 0.00 81 1018.3
20260507101330 57 53 1.0 3.0 0.00 0.00 0.00 81 1018.2
20260507100829 57 51 1.0 3.0 0.00 0.00 0.00 81 1018.2
20260507100349 58 49 1.0 3.0 0.00 0.00 0.00 81 1018.2
20260507095824 58 30 2.0 3.0 0.00 0.00 0.00 81 1018.3
20260507095339 58 40 1.0 3.0 0.00 0.00 0.00 81 1018.4
20260507094857 58 45 1.0 3.0 0.00 0.00 0.00 80 1018.3
20260507094337 58 46 1.0 3.0 0.00 0.00 0.00 80 1018.3
20260507093837 58 51 0.0 3.0 0.00 0.00 0.00 80 1018.4
20260507093336 58 51 1.0 3.0 0.00 0.00 0.00 80 1018.6
20260507092829 59 42 0.0 3.0 0.00 0.00 0.00 80 1018.7
20260507092329 59 27 1.0 2.0 0.00 0.00 0.00 80 1018.7
20260507091828 59 355 0.0 2.0 0.00 0.00 0.00 80 1018.8
20260507091326 59 307 0.0 0.0 0.00 0.00 0.00 80 1018.8
20260507090825 59 307 0.0 1.0 0.00 0.00 0.00 80 1018.9
20260507090345 59 307 0.0 1.0 0.00 0.00 0.00 80 1019.0
20260507085837 59 306 0.0 1.0 0.00 0.00 0.00 80 1019.0
20260507085335 60 306 0.0 1.0 0.00 0.00 0.00 80 1019.0
20260507084835 60 306 0.0 0.0 0.00 0.00 0.00 80 1019.0
20260507084334 60 306 0.0 0.0 0.00 0.00 0.00 80 1019.1
20260507083834 60 306 0.0 0.0 0.00 0.00 0.00 81 1019.1
20260507083354 60 306 0.0 0.0 0.00 0.00 0.00 81 1019.1
20260507082828 60 306 0.0 0.0 0.00 0.00 0.00 81 1019.1
20260507082328 60 306 0.0 1.0 0.00 0.00 0.00 81 1019.2
20260507081825 60 306 0.0 1.0 0.00 0.00 0.00 81 1019.1
20260507081324 60 306 0.0 1.0 0.00 0.00 0.00 81 1019.2
20260507080825 60 306 0.0 1.0 0.00 0.00 0.00 81 1019.2
20260507080345 60 306 0.0 2.0 0.00 0.00 0.00 81 1019.2
20260507075838 60 306 0.0 2.0 0.00 0.00 0.00 81 1019.2
20260507075339 61 306 1.0 2.0 0.00 0.00 0.00 81 1019.2
20260507074837 61 306 0.0 2.0 0.00 0.00 0.00 80 1019.3
20260507074334 61 306 1.0 3.0 0.00 0.00 0.00 81 1019.2
20260507073835 61 306 2.0 3.0 0.00 0.00 0.00 81 1019.3
20260507073331 61 306 1.0 3.0 0.00 0.00 0.00 80 1019.3
20260507072847 61 306 2.0 4.0 0.00 0.00 0.00 81 1019.3
20260507072343 61 306 3.0 4.0 0.00 0.00 0.00 80 1019.3
20260507071903 61 317 3.0 3.0 0.00 0.00 0.00 80 1019.3
20260507071341 61 317 2.0 3.0 0.00 0.00 0.00 80 1019.3
20260507070857 61 317 0.0 3.0 0.00 0.00 0.00 79 1019.3
20260507070401 61 334 0.0 3.0 0.00 0.00 0.00 79 1019.4
20260507065836 61 335 0.0 4.0 0.00 0.00 0.00 79 1019.4
20260507065335 61 335 2.0 4.0 0.00 0.00 0.00 79 1019.4
20260507064836 61 307 2.0 3.0 0.00 0.00 0.00 79 1019.6
20260507064334 61 298 0.0 2.0 0.00 0.00 0.00 79 1019.6
20260507063849 61 296 1.0 3.0 0.00 0.00 0.00 79 1019.6
20260507063326 61 298 1.0 3.0 0.00 0.00 0.00 79 1019.7
20260507062826 61 315 1.0 5.0 0.00 0.00 0.00 78 1019.6
20260507062327 61 317 2.0 5.0 0.00 0.00 0.00 78 1019.6
20260507061825 61 306 3.0 5.0 0.00 0.00 0.00 78 1019.6
20260507061340 61 313 3.0 6.0 0.00 0.00 0.00 77 1019.5
20260507060840 62 313 3.0 6.0 0.00 0.00 0.00 77 1019.6
20260507060339 62 281 2.0 4.0 0.00 0.00 0.00 77 1019.5
20260507055856 62 344 2.0 6.0 0.00 0.00 0.00 76 1019.6
20260507055333 62 300 3.0 9.0 0.00 0.00 0.00 76 1019.5
20260507054834 62 317 4.0 8.0 0.00 0.00 0.00 76 1019.5
20260507054330 62 303 4.0 7.0 0.00 0.00 0.00 76 1019.5
20260507053828 62 313 3.0 9.0 0.00 0.00 0.00 75 1019.4
20260507053327 63 306 4.0 9.0 0.00 0.00 0.00 74 1019.4
20260507052847 63 304 6.0 8.0 0.00 0.00 0.00 74 1019.4
20260507052403 63 300 5.0 8.0 0.00 0.00 0.00 72 1019.4
20260507051838 63 290 4.0 7.0 0.00 0.00 0.00 72 1019.4
20260507051338 63 295 4.0 6.0 0.00 0.00 0.00 71 1019.3
20260507050837 63 294 2.0 6.0 0.00 0.00 0.00 71 1019.4
20260507050337 63 304 3.0 5.0 0.00 0.00 0.00 71 1019.4
20260507045833 63 308 3.0 6.0 0.00 0.00 0.00 70 1019.4
20260507045331 64 303 2.0 6.0 0.00 0.00 0.00 70 1019.4
20260507044830 64 311 5.0 6.0 0.00 0.00 0.00 70 1019.4
20260507044325 64 283 4.0 7.0 0.00 0.00 0.00 70 1019.3
20260507043844 64 288 6.0 8.0 0.00 0.00 0.00 70 1019.4
20260507043341 64 303 3.0 10.0 0.00 0.00 0.00 70 1019.4
20260507042842 64 309 7.0 10.0 0.00 0.00 0.00 70 1019.3
20260507042338 64 313 6.0 9.0 0.00 0.00 0.00 70 1019.3
20260507041838 64 304 5.0 7.0 0.00 0.00 0.00 70 1019.2
20260507041333 64 302 5.0 9.0 0.00 0.00 0.00 70 1019.3
20260507040833 64 299 6.0 9.0 0.00 0.00 0.00 70 1019.1
20260507040334 65 314 8.0 10.0 0.00 0.00 0.00 70 1019.2
20260507035829 65 290 6.0 10.0 0.00 0.00 0.00 69 1019.0
20260507035328 65 304 7.0 10.0 0.00 0.00 0.00 69 1019.0
20260507034829 65 309 7.0 11.0 0.00 0.00 0.00 68 1018.8
20260507034344 65 306 8.0 11.0 0.00 0.00 0.00 68 1018.8
20260507033841 65 308 8.0 11.0 0.00 0.00 0.00 67 1018.8
20260507033340 65 308 8.0 12.0 0.00 0.00 0.00 67 1018.9
20260507032840 66 309 7.0 12.0 0.00 0.00 0.00 67 1018.7
20260507032338 66 321 7.0 11.0 0.00 0.00 0.00 66 1018.6
20260507031836 66 311 8.0 11.0 0.00 0.00 0.00 65 1018.6
20260507031329 66 306 8.0 10.0 0.00 0.00 0.00 64 1018.5
20260507030828 66 360 8.0 12.0 0.00 0.00 0.00 64 1018.5
20260507030346 67 313 10.0 12.0 0.00 0.00 0.00 63 1018.5
20260507025843 67 298 7.0 12.0 0.00 0.00 0.00 63 1018.5
20260507025342 67 297 8.0 12.0 0.00 0.00 0.00 62 1018.4
20260507024837 67 303 7.0 11.0 0.00 0.00 0.00 62 1018.3
20260507024338 67 302 8.0 11.0 0.00 0.00 0.00 62 1018.3
20260507023856 67 307 8.0 12.0 0.00 0.00 0.00 62 1018.2
20260507023356 68 303 8.0 12.0 0.00 0.00 0.00 62 1018.2
20260507022835 68 301 9.0 12.0 0.00 0.00 0.00 62 1018.1
20260507022334 68 298 8.0 13.0 0.00 0.00 0.00 62 1018.0
20260507021829 68 312 9.0 13.0 0.00 0.00 0.00 61 1018.0
20260507021327 69 311 8.0 12.0 0.00 0.00 0.00 61 1018.0
20260507020825 69 301 8.0 13.0 0.00 0.00 0.00 61 1017.9
20260507020341 69 299 10.0 13.0 0.00 0.00 0.00 61 1017.9
20260507015836 69 322 8.0 13.0 0.00 0.00 0.00 61 1017.9
20260507015337 69 302 9.0 12.0 0.00 0.00 0.00 60 1017.8
20260507014832 70 271 4.0 11.0 0.00 0.00 0.00 61 1017.8
20260507014331 70 277 8.0 11.0 0.00 0.00 0.00 61 1017.8
20260507013827 70 178 7.0 13.0 0.00 0.00 0.00 60 1017.9
20260507013327 70 221 5.0 11.0 0.00 0.00 0.00 60 1017.7
20260507012845 70 196 7.0 17.0 0.00 0.00 0.00 60 1017.7
20260507012339 70 218 7.0 17.0 0.00 0.00 0.00 59 1017.7
20260507011840 70 246 11.0 16.0 0.00 0.00 0.00 58 1017.6
20260507011336 70 182 10.0 14.0 0.00 0.00 0.00 58 1017.5
20260507010855 70 204 7.0 15.0 0.00 0.00 0.00 58 1017.4
20260507010352 70 223 10.0 17.0 0.00 0.00 0.00 58 1017.5
20260507005829 71 269 8.0 17.0 0.00 0.00 0.00 58 1017.5
20260507005324 71 207 7.0 15.0 0.00 0.00 0.00 58 1017.5
20260507004843 71 250 11.0 15.0 0.00 0.00 0.00 58 1017.6
20260507004343 71 298 9.0 16.0 0.00 0.00 0.00 58 1017.6
20260507003903 71 252 9.0 16.0 0.00 0.00 0.00 58 1017.4
20260507003402 71 205 5.0 14.0 0.00 0.00 0.00 58 1017.6
20260507002834 71 301 9.0 14.0 0.00 0.00 0.00 57 1017.5
20260507002334 72 202 8.0 16.0 0.00 0.00 0.00 57 1017.4
20260507001834 72 234 9.0 16.0 0.00 0.00 0.00 57 1017.3
20260507001331 72 205 10.0 16.0 0.00 0.00 0.00 56 1017.4
20260507000828 72 259 7.0 16.0 0.00 0.00 0.00 56 1017.4
20260507000328 72 180 9.0 16.0 0.00 0.00 0.00 56 1017.5
20260506235840 72 223 7.0 19.0 0.00 0.00 0.00 56 1017.5
20260506235337 72 232 10.0 19.0 0.00 0.00 0.00 56 1017.4
20260506234835 71 246 7.0 15.0 0.00 0.00 0.00 57 1017.4
20260506234333 71 269 8.0 15.0 0.00 0.00 0.00 56 1017.4
20260506233831 71 264 8.0 15.0 0.00 0.00 0.00 56 1017.4
20260506233343 71 275 9.0 15.0 0.00 0.00 0.00 56 1017.5
20260506232841 71 219 6.0 16.0 0.00 0.00 0.00 57 1017.3
20260506232401 71 279 9.0 16.0 0.00 0.00 0.00 57 1017.6